Regional Weather Roundup
Issued by NWS Newport/Morehead, NC

Current Version | Previous Version | Graphics & Text | Print | Product List | Glossary Off
Versions: 1 2 3 4 5 6 7 8 9 10 11 12 13 14 15 16 17 18 19 20 21 22 23 24 25 26 27 28 29 30 31 32 33 34 35 36 37 38 39 40 41 42 43 44 45 46 47 48 49 50

998
ASUS42 KMHX 282325
RWRMHX
WEATHER ROUNDUP FOR EASTERN NORTH CAROLINA
NATIONAL WEATHER SERVICE NEWPORT/MOREHEAD CITY NC
700 PM EDT WED JUN 28 2017

NOTE: "FAIR" INDICATES FEW OR NO CLOUDS BELOW 12,000 FEET
WITH NO SIGNIFICANT WEATHER AND/OR OBSTRUCTIONS TO VISIBILITY

NCZ015>017-031-032-045>047-102-103-290000-
NORTH COAST

CITY           SKY/WX    TMP DP  RH WIND       PRES   REMARKS
EDENTON        SUNNY     77  63  61 E8        30.19R
ELIZABETH CITY SUNNY     75  58  55 E9        30.19R
KITTY HAWK     CLEAR     73  58  60 E7        30.19R
MANTEO         SUNNY     73  59  62 E9        30.20S

$$

NCZ045>047-081-094-103-104-290000-
CENTRAL COAST

CITY           SKY/WX    TMP DP  RH WIND       PRES   REMARKS
FRISCO         NOT AVBL

$$

NCZ095-097-098-100-101-290000-
SOUTHERN COAST

CITY           SKY/WX    TMP DP  RH WIND       PRES   REMARKS
BEAUFORT       SUNNY     80  58  46 E9        30.17R
CEDAR ISLAND   NOT AVBL
JACKSONVILLE   SUNNY     80  62  54 SE13      30.16R
PINEY ISLAND   CLEAR    N/A N/A N/A E10       30.18R
WILMINGTON     SUNNY     81  55  40 SE13      30.16S


$$

NCZ011>013-027>030-043-044-078>080-089-090>093-098-290000-
COASTAL PLAIN

CITY           SKY/WX    TMP DP  RH WIND       PRES   REMARKS
AHOSKIE          N/A     76  55  48 CALM      30.17S
CLINTON        SUNNY     83  56  39 CALM      30.17R
ELIZABETHTOWN  NOT AVBL
GOLDSBORO      SUNNY     83  51  33 E5        30.15R
GREENVILLE     SUNNY     81  54  39 CALM      30.18R
HAVELOCK       SUNNY     82  56  40 E8        30.18R
KENANSVILLE    SUNNY     81  55  41 E3        30.17R
KINSTON        SUNNY     82  50  32 CALM      30.17R
NEW BERN       SUNNY     80  60  50 SE9       30.18R
RICHLANDS      SUNNY     82  54  37 E5        30.17R
ROCKY MOUNT    SUNNY     82  54  37 E5        30.17R
WASHINGTON     SUNNY    N/A N/A N/A NE5       30.18R
WHITEVILLE     SUNNY     84  55  37 E3        30.15R

$$

AMZ130-135-150-152-154-156-158-170-250-252-270-ANZ085-086-088-633-658-670-290000-
MARINE OBSERVATIONS

STATION/POSITION TIME  TEMP    WIND        PRES    WAVE   SWELL
                       AIR SEA DIR/SP/G            HT/PER HT/PER
                 (UTC) (F)     (DEG/KT/KT) (MB)    (FT/S) (FT/S)
CHESAPEAKE LIGHT NOT AVBL
64 E VA BEACH    2250   71 74   70/  8/  8 1023.3    2/ 5   2/ 5
DUCK             2300   73 75   80/ 13/ 15 1022.1
2 E DUCK         NOT AVBL
OREGON INLET     2300   73 76   70/  9/ 14 1022.4
13E OREGON INLT  2248      74                N/A     3/ 5   2/ 5
HATTERAS CG      2300   77 78   90/  8/ 10 1022.2
DIAMOND BUOY     2250   78 83   30/ 10/ 12 1022.1    2/ 6   2/ 6
CAPE LOOKOUT     2300   79      90/ 13/ 14 1021.5
BEAUFORT LAB     2300   80 80  100/  7/ 12 1021.1
30 SE NEW RVR IN NOT AVBL
30 SE NEW RVR IN 2313      81                N/A     2/ 8
27 SE WRIGHTSVLE NOT AVBL
5 SE WRIGHTSVLE  NOT AVBL
225 S CAPE HAT   2250   80 81   60/ 14/ 17 1020.1    3/ 5   2/ 8
41 SE CHARLESTON 2310   81      70/ 16/ 19 1020.0

$$




USA.gov is the U.S. government's official web portal to all federal, state and local government web resources and services.